Dewpoint
30 37 40 43 44 47 47 50 53 54 56 56 56 56 55 54 56 55 55 53 55 48 44 42 40 40 43 42 42 42 42 48 54 56 52 55 55 54 56 56 58 58 58 58 60 60 60 60 62 64 63 63 64 65 67 64 65 65 66 65 63 62 63 62 60 59 55 53 54 53 56 56 57 56 55 54 54 54 53 51 52 55 54 56 57
27 35 39 44 42 48 49 48 53 53 54 56 55 56 56 56 56 58 55 53 51 51 48 46 45 42 42 39 40 41 40 40 44 53 54 55 56 56 56 57 57 57 57 58 59 59 60 59 59 59 61 62 62 62 64 66 67 66 66 64 63 62 61 63 62 59 56 52 50 52 55 55 57 56 53 53 53 52 55 54 54 53 52 55 57
30 33 40 41 46 47 48 49 52 54 55 55 55 56 56 56 55 58 56 53 50 53 53 48 48 51 50 50 45 41 47 50 50 52 54 51 56 54 54 55 55 55 57 57 58 58 59 59 59 59 60 60 60 59 61 63 65 66 67 64 63 61 61 61 61 60 55 54 53 52 51 52 54 54 56 54 53 53 53 51 50 50 50 52 55
31 35 40 43 46 46 48 48 52 54 53 54 54 54 55 55 55 57 56 55 52 52 50 49 53 55 56 54 53 50 49 54 56 55 54 53 52 53 52 53 53 54 54 53 55 56 57 58 59 58 59 60 60 60 61 62 64 66 66 65 65 63 61 60 61 61 61 61 51 49 51 51 49 53 54 54 54 54 53 51 51 49 51 52 53
34 41 45 46 46 46 48 48 51 53 53 52 54 54 54 56 55 57 56 55 54 50 53 55 55 58 57 57 56 57 51 47 45 44 48 50 51 52 52 52 52 52 53 54 53 55 56 57 57 58 59 59 58 59 59 60 61 62 64 65 65 64 63 65 65 65 61 63 58 52 50 50 49 48 54 54 54 52 52 51 52 51 50 51 51
39 42 44 45 45 46 48 48 50 52 52 54 56 55 56 54 55 57 56 54 53 52 55 56 55 51 50 47 44 43 44 45 42 45 45 48 48 52 51 50 51 51 51 52 52 53 55 56 57 57 58 58 58 58 59 59 60 61 60 64 66 65 64 63 64 65 65 63 63 60 58 53 50 48 48 51 55 55 54 51 51 53 53 52 52
40 41 43 44 44 44 46 47 48 50 52 55 56 57 56 55 55 58 56 54 54 52 53 52 52 49 48 45 45 44 44 48 50 50 49 48 50 52 52 52 50 51 52 52 52 53 54 55 56 57 56 57 58 59 58 59 60 61 60 61 62 64 64 63 62 63 65 64 61 61 57 56 53 52 50 49 48 54 54 54 53 51 52 52 50
42 41 42 43 43 44 45 47 48 49 53 53 56 58 56 56 56 58 55 53 54 54 50 52 51 50 51 50 49 47 47 49 51 51 51 50 49 52 52 52 51 50 50 50 51 51 52 53 54 55 54 55 54 55 56 58 59 60 62 63 62 62 63 62 61 61 60 60 62 61 59 59 54 51 50 50 49 49 53 54 54 56 56 56 55
41 41 41 42 43 44 45 46 47 48 50 53 56 59 58 56 57 58 55 54 53 53 51 51 52 51 51 50 48 49 51 50 49 47 48 49 50 50 52 51 51 52 50 50 51 51 51 52 53 53 53 53 53 53 55 55 57 60 60 61 63 65 65 65 63 62 62 61 62 62 62 62 61 52 50 50 48 49 49 53 53 54 57 56 55
37 38 40 42 44 44 46 46 46 48 52 55 59 59 58 57 58 58 55 53 54 53 52 51 52 50 50 50 49 49 48 48 48 49 50 50 50 50 50 49 49 50 52 52 52 50 51 52 52 52 53 53 53 52 54 56 58 59 60 61 62 64 65 65 64 63 63 64 64 63 62 61 57 53 52 51 51 52 50 49 55 54 52 53 56
32 34 38 42 43 44 44 44 45 49 55 58 59 58 59 58 58 57 56 54 55 53 52 53 53 51 51 52 52 52 50 51 49 51 50 49 49 49 49 47 48 48 49 52 53 52 52 51 52 53 53 53 51 51 53 54 55 56 58 60 62 62 63 64 65 65 64 64 65 66 62 58 57 56 56 53 52 52 51 51 50 46 50 53 55
30 31 36 40 42 44 45 44 47 52 59 58 58 58 58 58 58 57 56 55 54 54 52 53 52 52 52 52 53 52 53 52 51 50 50 51 50 49 48 47 48 48 51 49 50 51 52 51 52 52 53 54 52 51 52 53 55 55 56 57 59 61 63 63 64 64 64 63 64 65 64 63 62 59 56 56 55 53 53 51 50 48 46 49 49
27 28 35 41 44 47 49 48 54 57 59 58 58 58 58 58 58 56 55 55 54 54 52 53 52 52 51 52 52 52 52 52 51 51 51 49 49 49 48 45 45 46 46 48 48 49 50 51 52 51 51 52 53 52 52 53 54 55 55 57 57 58 61 62 64 63 63 62 62 64 65 64 64 63 61 60 62 61 57 58 51 49 48 46 45
23 26 30 38 45 50 51 50 53 56 57 57 57 58 58 57 57 56 54 55 54 53 52 52 52 52 52 51 51 51 52 52 50 50 51 49 47 47 49 48 46 47 47 48 49 49 49 50 51 51 51 51 51 52 54 54 54 52 54 55 56 57 59 62 64 62 63 62 63 62 63 62 64 64 64 62 61 60 60 59 57 54 51 47 44
20 26 28 34 41 45 47 48 50 53 55 57 57 57 57 57 56 56 54 54 54 53 51 51 51 52 52 50 50 49 50 49 48 48 49 50 49 49 48 47 48 48 46 48 49 51 51 50 50 51 51 52 52 52 52 54 54 52 52 55 55 55 55 58 61 63 62 62 61 61 62 63 64 64 64 63 62 60 60 61 61 56 55 52 51
24 26 29 34 39 43 43 46 48 49 51 55 56 57 57 56 56 56 54 55 54 52 51 51 51 52 51 51 51 50 48 48 47 47 47 49 50 50 49 50 49 48 49 49 50 50 50 50 50 50 50 51 51 51 51 51 53 54 52 54 54 54 56 56 57 61 62 63 62 62 61 60 61 63 64 64 64 64 65 63 62 62 56 53 51
24 24 25 32 35 41 42 44 47 48 50 52 55 57 57 56 56 55 53 54 54 52 51 51 51 51 51 51 51 50 48 47 46 48 50 50 50 50 49 49 50 50 50 49 50 50 50 50 49 49 50 50 51 51 52 53 53 54 53 52 53 54 54 54 55 57 59 63 63 63 62 60 61 62 62 64 64 64 65 65 63 61 60 58 53
23 24 27 30 35 39 41 42 43 46 46 51 55 58 58 57 55 55 53 53 53 51 50 50 51 51 51 50 50 50 50 49 48 49 50 49 49 49 49 48 48 49 49 50 50 50 50 49 49 48 48 48 49 50 50 51 53 52 52 52 52 53 53 54 55 55 56 58 59 61 62 61 61 61 61 63 63 64 64 65 64 64 63 60 58
25 25 26 29 34 37 39 40 37 42 49 54 56 57 57 56 55 54 53 53 52 50 50 49 50 50 50 50 50 50 49 48 48 48 49 48 48 47 47 46 48 48 47 48 48 48 49 48 48 47 47 47 47 48 49 51 51 51 52 52 53 53 52 52 53 54 55 56 56 58 60 60 60 61 60 61 62 63 63 64 64 64 63 62 61
24 24 26 29 31 32 33 37 34 41 53 56 56 56 55 55 53 52 52 51 52 50 50 49 49 48 50 50 50 48 47 47 48 49 48 47 47 47 46 47 47 46 47 47 46 46 46 47 46 45 45 44 44 45 47 49 50 51 51 51 52 52 51 51 51 52 52 54 55 56 58 59 60 60 60 60 61 61 62 62 62 63 63 63 62
28 27 26 28 30 32 32 35 33 44 52 53 54 53 52 52 52 50 51 51 52 50 49 48 48 48 50 49 49 49 48 47 48 48 48 47 47 46 45 46 45 45 45 45 44 43 43 44 44 44 43 44 44 45 45 47 48 49 50 51 51 51 50 50 50 50 51 52 53 53 54 57 60 60 60 59 59 60 60 60 61 62 62 63 62
30 29 29 29 31 32 32 29 30 44 50 50 50 50 50 50 50 49 49 50 51 49 48 48 48 48 49 48 49 49 48 48 48 48 48 47 46 46 47 45 46 45 44 43 42 43 43 43 43 42 43 42 43 43 44 45 45 47 49 50 51 50 51 50 51 50 50 50 52 52 52 53 54 57 59 58 57 58 59 60 59 61 61 62 63
30 31 30 29 31 31 28 34 40 45 45 47 49 48 48 50 49 49 49 49 49 48 47 47 47 48 49 48 49 49 48 48 48 48 47 46 46 46 46 46 45 44 43 42 41 41 41 41 41 42 41 42 42 41 43 43 44 44 45 48 49 50 50 51 51 50 49 49 49 50 51 52 54 55 57 59 60 59 59 58 59 59 59 61 62
29 30 32 30 30 32 28 34 37 41 43 46 48 45 47 48 47 45 47 48 48 48 46 45 47 48 49 49 48 47 47 47 48 47 46 46 46 46 45 45 44 44 41 42 41 40 40 40 40 40 40 41 42 42 41 41 41 43 44 44 46 48 49 50 50 49 49 50 50 50 49 51 52 53 55 58 59 59 59 59 58 59 60 60 61
29 29 30 31 31 29 30 35 35 35 38 46 45 43 45 47 47 45 47 48 47 46 45 43 44 47 48 48 48 46 46 47 47 46 47 46 46 46 45 43 44 43 42 41 41 40 40 39 42 40 41 41 41 41 41 41 42 43 43 44 45 46 48 48 49 49 50 50 50 51 50 50 50 51 53 55 56 59 58 58 59 59 60 60 61
29 31 31 32 29 29 34 34 28 28 31 41 43 42 43 45 46 47 46 48 46 45 44 44 44 45 47 47 47 46 46 46 46 46 46 46 45 45 43 43 42 41 41 41 40 40 41 40 40 41 41 41 41 41 41 41 41 42 42 43 45 45 46 46 47 49 49 49 51 50 51 51 50 50 51 53 55 58 59 60 58 58 58 60 60
29 31 30 30 35 37 32 31 29 32 34 35 39 39 40 44 46 46 45 46 46 46 45 43 43 44 45 45 44 45 45 45 46 45 45 43 43 43 42 41 41 40 40 39 39 39 40 41 40 41 41 41 41 41 41 42 42 41 42 41 42 43 44 46 47 47 48 49 49 50 50 51 51 51 52 52 53 55 60 61 60 59 59 61 61
29 30 30 31 34 36 35 33 35 36 34 33 37 36 38 43 44 44 43 46 46 46 44 43 43 44 43 42 42 44 44 44 44 43 42 43 41 41 41 41 40 40 39 38 38 39 40 40 40 40 40 41 41 41 41 41 41 42 42 42 42 42 43 44 46 47 48 49 49 50 50 50 51 51 51 52 53 53 55 59 60 61 61 61 59
27 30 33 33 33 35 37 38 39 39 36 35 33 33 39 41 42 41 43 45 46 45 43 42 43 43 41 41 43 43 43 42 41 41 41 41 40 41 40 40 39 39 40 39 39 39 39 39 39 39 39 40 41 41 41 41 42 41 41 42 42 42 43 43 44 46 47 48 49 50 49 49 52 51 48 49 50 50 55 56 58 61 62 61 61
28 31 31 32 33 34 37 41 43 36 35 32 32 33 36 39 40 40 43 44 45 45 43 41 40 40 41 40 41 42 41 41 40 40 40 40 39 39 39 39 38 38 38 39 39 39 38 38 38 38 39 41 41 42 42 41 41 41 41 41 42 43 42 43 43 44 45 47 48 49 51 49 48 48 47 46 45 45 47 54 57 59 62 61 61
46 30 30 31 33 33 35 41 40 36 35 33 33 32 34 37 38 40 40 42 41 42 40 38 37 38 39 40 40 39 38 38 39 39 39 39 37 38 38 38 38 38 39 39 39 38 39 39 38 38 39 40 40 40 39 38 38 39 41 41 40 41 42 43 44 44 44 45 47 47 49 50 49 48 49 45 44 44 44 45 48 50 55 62 60
36 39 31 30 31 34 38 39 38 33 33 32 33 30 33 35 37 38 37 38 39 39 37 36 36 37 38 37 37 37 37 37 37 36 37 36 37 37 36 36 36 38 38 39 39 38 38 39 39 39 39 39 40 39 38 38 38 38 39 41 41 40 41 40 41 43 44 45 46 47 48 49 50 51 50 51 49 45 44 44 45 47 48 48 49
29 36 39 31 33 35 38 37 34 32 29 30 31 30 33 34 37 37 35 36 35 37 35 37 37 37 36 37 34 35 35 36 36 36 36 37 36 35 35 35 35 37 38 37 37 38 38 38 38 38 38 38 39 38 37 38 37 37 37 39 39 39 39 39 40 41 41 43 45 46 47 48 50 48 51 51 51 52 47 44 45 47 47 48 47
32 41 39 33 32 33 33 35 36 34 31 32 33 30 33 36 36 34 34 32 32 33 35 35 36 35 34 34 34 33 34 34 35 36 36 34 34 34 35 35 35 36 36 37 37 38 38 37 37 37 37 38 38 38 37 37 37 37 37 37 39 39 39 39 39 39 41 41 43 44 45 47 48 50 51 51 51 51 52 54 53 54 56 54 47
39 42 35 34 34 34 37 38 35 34 35 34 31 32 35 33 36 33 32 33 32 32 35 36 36 35 34 33 32 33 34 34 35 35 35 34 34 35 34 33 34 35 36 35 35 36 36 37 37 37 37 37 38 37 36 36 36 36 36 37 39 39 38 39 38 39 39 40 41 42 44 46 47 48 50 50 51 51 51 52 55 56 57 58 59
44 36 34 34 33 36 40 39 37 36 34 31 32 33 35 35 34 32 32 32 32 32 33 35 35 34 33 31 32 33 34 33 34 34 33 32 33 34 33 34 35 35 35 35 35 35 35 35 36 36 36 36 36 36 36 36 36 36 36 38 37 38 38 38 38 39 38 39 40 41 42 43 46 48 48 44 46 51 51 52 52 56 56 57 59
38 34 34 37 39 39 41 41 41 37 34 35 34 34 36 34 32 30 31 31 33 32 31 33 34 32 32 31 32 33 33 33 33 33 31 32 33 33 33 35 35 35 35 34 34 34 34 35 35 35 35 35 35 36 36 36 36 36 36 37 36 36 36 37 37 38 38 39 40 40 41 42 44 45 45 44 42 43 52 51 52 53 56 56 57
33 34 38 41 41 40 42 41 40 39 36 35 34 36 35 33 32 30 30 30 31 32 32 31 31 29 30 29 31 31 33 34 33 31 31 32 32 32 34 35 35 34 34 34 34 34 34 34 34 34 34 34 35 35 36 36 36 36 37 37 37 36 36 36 37 37 38 38 39 41 43 41 43 45 43 43 43 44 51 51 52 52 55 55 57
36 40 41 39 41 39 38 38 39 38 36 35 35 36 32 32 31 31 31 30 31 31 32 30 30 28 27 27 29 32 32 33 33 33 33 32 32 32 33 35 35 35 34 33 33 33 33 33 33 33 36 35 34 35 35 35 35 36 37 37 36 36 36 36 37 37 38 38 39 40 42 41 42 43 41 42 43 45 51 52 52 52 52 54 56
37 37 36 37 41 38 35 37 38 38 38 35 35 34 33 32 31 31 32 31 32 33 31 29 28 28 29 30 32 34 34 35 34 34 33 32 33 32 34 34 35 33 33 33 33 32 32 32 32 32 33 33 33 34 35 35 36 36 37 37 37 37 37 37 37 36 37 38 39 39 40 38 38 39 40 40 41 41 49 52 53 52 52 52 54
34 34 37 39 37 35 32 35 36 36 36 36 34 34 33 31 32 33 33 33 34 33 31 29 28 27 28 29 30 32 33 34 34 34 33 32 32 32 34 34 34 33 33 33 33 32 32 31 31 32 32 32 34 34 35 35 36 36 37 37 38 38 38 38 37 37 37 38 39 39 40 39 38 39 39 39 40 41 42 51 54 53 52 56 49
37 40 38 33 30 34 35 36 36 35 35 36 34 33 32 31 33 34 34 34 33 30 29 27 27 27 29 29 31 33 35 36 35 33 31 30 30 32 34 34 33 33 33 32 32 31 30 30 30 31 31 32 33 36 34 35 36 36 36 37 39 40 40 39 38 37 37 38 39 40 41 40 39 39 39 40 40 41 41 48 54 47 43 43 52
41 39 33 31 32 34 34 36 34 34 35 35 33 33 32 33 33 35 35 33 31 29 27 27 28 28 30 31 33 34 34 35 34 34 32 30 30 32 33 34 33 33 32 31 31 30 30 29 29 30 30 30 31 32 35 35 35 36 36 37 37 38 38 40 39 38 38 38 39 40 41 41 40 40 39 40 40 41 42 48 48 40 42 42 45
34 32 29 28 29 30 33 36 33 32 34 34 33 32 32 32 34 34 34 32 30 29 27 28 30 31 30 29 28 29 31 32 32 31 30 29 30 32 32 33 32 32 31 30 29 29 29 29 28 29 30 30 31 31 33 34 35 36 36 37 37 37 37 39 39 39 39 40 41 42 43 41 41 40 40 40 41 42 47 47 40 40 41 42 48
30 28 31 31 29 31 34 36 32 32 33 32 32 32 32 33 34 34 30 29 30 29 30 31 30 27 27 24 27 28 29 29 29 29 29 29 30 32 32 32 32 32 31 29 29 29 29 29 29 30 30 30 31 31 32 33 35 36 37 37 37 37 37 37 39 40 39 40 41 41 41 41 41 41 40 40 41 42 43 39 39 39 42 47 47
32 33 33 29 29 33 35 36 32 31 32 33 32 31 33 34 33 32 28 29 29 30 30 29 25 25 25 22 25 25 25 27 28 28 30 29 31 31 31 32 33 32 31 30 29 29 29 30 30 30 30 30 31 31 31 32 36 39 39 38 38 38 38 38 38 40 39 38 39 40 41 39 40 41 43 46 47 46 38 38 38 41 49 46 45
31 35 35 34 34 33 33 35 34 32 31 31 32 31 31 32 31 29 28 29 27 28 28 28 27 25 25 24 24 23 23 26 28 26 28 29 30 31 32 33 33 32 32 30 30 29 30 30 30 30 30 31 31 31 31 32 35 40 40 39 40 41 39 38 39 40 39 41 42 43 44 41 42 40 42 43 43 39 39 40 43 47 46 45 44
35 35 34 34 35 34 34 35 34 32 32 31 31 30 29 30 29 28 28 28 27 25 27 26 26 26 24 23 24 25 25 23 23 24 26 27 30 32 32 33 32 32 32 32 31 31 31 30 30 30 31 31 31 30 31 31 33 36 37 37 38 41 42 41 41 41 42 44 45 39 39 42 42 43 44 44 43 43 41 40 45 45 44 43 42
34 35 36 36 34 32 35 33 34 32 32 32 31 31 29 31 30 29 29 28 28 29 29 28 26 25 25 25 27 27 26 25 25 25 27 29 29 32 32 33 34 33 33 33 33 32 32 32 32 32 31 31 31 31 32 33 33 33 33 35 36 39 43 43 41 40 43 44 43 43 41 41 41 39 39 40 41 42 40 43 44 44 42 42 41
33 34 35 35 35 36 35 35 36 33 31 30 30 30 31 28 27 27 29 28 28 29 28 27 26 26 26 26 29 27 27 26 25 25 26 29 31 34 33 32 32 33 34 34 34 33 33 33 32 33 33 32 32 33 33 33 34 34 34 34 35 36 36 41 39 38 40 41 39 38 38 38 37 38 38 38 39 39 39 39 39 38 39 41 40
32 33 34 33 35 35 35 34 36 34 31 29 29 30 30 28 27 27 28 28 28 26 25 25 25 27 26 28 28 28 27 26 26 26 27 28 28 24 31 34 34 34 34 34 34 34 34 33 33 32 34 34 33 33 33 34 34 34 34 34 35 35 36 36 37 38 39 38 38 37 37 37 37 38 37 37 37 37 37 37 37 37 37 37 36